Aurora, OR

5:38 AM PST on December 11, 2017 (GMT -0800)
Aurora State

Weather History for KUAO - February, 2014

Change the Weather History Date:

Thursday, February 27, 2014

  Actual Average Record
Temperature  
Mean Temperature 42 °F -  
Max Temperature 46 °F - 66 °F (2005)
Min Temperature 38 °F - 27 °F (2009)
Degree Days  
Heating Degree Days 23    
Month to date heating degree days 656  
Since 1 July heating degree days 3432  
Cooling Degree Days 0    
Month to date cooling degree days 0  
Year to date cooling degree days 0  
Moisture  
Dew Point 39 °F    
Average Humidity 81    
Maximum Humidity 100    
Minimum Humidity 62    
Precipitation  
Precipitation 0.16 in - 1.23 in (1999)
Month to date precipitation 5.75  
Year to date precipitation 8.32  
Sea Level Pressure  
Sea Level Pressure 29.74 in    
Wind  
Wind Speed 3 mph (NE)    
Max Wind Speed 10 mph    
Max Gust Speed 13 mph    
Visibility 8 miles    
Events Rain    
T = Trace of Precipitation, MM = Missing Value Source: NWS Daily Summary

Daily Weather History Graph

Daily Weather History Graph

Search for Another Location

Airport or City:

Trip Planner

Search our weather history database for the weather conditions in past years. The results will help you decide how hot, cold, wet, or windy it might be!

Date:

Astronomy

Feb. 27, 2014 Rise Set
Actual Time 6:52 AM PST 5:55 PM PST
Civil Twilight 6:22 AM PST 6:25 PM PST
Nautical Twilight 5:48 AM PST 6:59 PM PST
Astronomical Twilight 5:14 AM PST 7:33 PM PST
Moon 5:32 AM PST (2/27) 4:25 PM PST (2/27)
Length of Visible Light 12h 02m
Length of Day
11h 03m
Waning Crescent, 3% of the Moon is Illuminated
Feb 27
Waning Crescent
Mar 1
New
Mar 8
First Quarter
Mar 16
Full
Mar 23
Last Quarter

Hourly Weather History & Observations

Time (PST) Temp. Windchill Dew Point Humidity Pressure Visibility Wind Dir Wind Speed Gust Speed Precip Events Conditions
12:53 AM 42.1 °F 36.6 °F 30.9 °F 65% 29.64 in 10.0 mi North 9.2 mph - N/A   Mostly Cloudy
1:53 AM 39.9 °F 35.1 °F 30.9 °F 70% 29.65 in 10.0 mi North 6.9 mph - N/A   Clear
2:53 AM 39.9 °F - 30.9 °F 70% 29.64 in 10.0 mi Calm Calm - N/A   Mostly Cloudy
3:53 AM 39.0 °F - 34.0 °F 82% 29.64 in 10.0 mi Calm Calm - N/A   Overcast
4:53 AM 39.0 °F - 34.0 °F 82% 29.64 in 10.0 mi Calm Calm - 0.00 in Rain Light Rain
5:53 AM 37.9 °F 35.5 °F 35.1 °F 89% 29.67 in 10.0 mi South 3.5 mph - 0.01 in Rain Light Rain
6:53 AM 37.9 °F 34.4 °F 36.0 °F 93% 29.69 in 10.0 mi South 4.6 mph - 0.01 in Rain Light Rain
7:53 AM 39.0 °F - 37.9 °F 96% 29.72 in 9.0 mi Calm Calm - 0.01 in Rain Light Rain
8:53 AM 39.9 °F - 37.9 °F 93% 29.74 in 4.0 mi Calm Calm - 0.05 in Rain Light Rain
9:06 AM 39.9 °F - 37.9 °F 93% 29.74 in 4.0 mi Calm Calm - 0.01 in Rain Light Rain
9:53 AM 41.0 °F 39.0 °F 39.0 °F 93% 29.75 in 7.0 mi SE 3.5 mph - 0.03 in Rain Light Rain
10:18 AM 41.0 °F 39.0 °F 39.0 °F 93% 29.76 in 7.0 mi ESE 3.5 mph - 0.01 in Rain Light Rain
10:43 AM 41.0 °F - 39.0 °F 93% 29.77 in 6.0 mi Calm Calm - 0.03 in Rain Light Rain
10:53 AM 41.0 °F 39.0 °F 39.0 °F 93% 29.77 in 6.0 mi East 3.5 mph - 0.03 in Rain Light Rain
11:00 AM 41.0 °F - 39.0 °F 93% 29.76 in 6.0 mi Calm Calm - 0.01 in Rain Light Rain
11:07 AM 41.0 °F 38.0 °F 39.0 °F 93% 29.76 in 7.0 mi East 4.6 mph - 0.01 in Rain Light Rain
11:17 AM 41.0 °F 39.0 °F 39.0 °F 93% 29.76 in 8.0 mi East 3.5 mph - 0.01 in Rain Light Rain
11:53 AM 42.1 °F - 39.0 °F 89% 29.77 in 10.0 mi Calm Calm - 0.01 in   Overcast
12:13 PM 42.1 °F - 39.9 °F 92% 29.76 in 9.0 mi Calm Calm - N/A   Overcast
12:36 PM 43.0 °F - 39.9 °F 89% 29.76 in 10.0 mi Calm Calm - 0.00 in Rain Light Rain
12:44 PM 43.0 °F 41.3 °F 39.9 °F 89% 29.76 in 9.0 mi NE 3.5 mph - 0.01 in Rain Light Rain
12:53 PM 43.0 °F - 39.9 °F 89% 29.76 in 8.0 mi Calm Calm - 0.01 in Rain Light Rain
1:53 PM 44.1 °F 42.5 °F 41.0 °F 89% 29.75 in 9.0 mi ENE 3.5 mph - 0.00 in   Overcast
2:18 PM 45.0 °F 43.5 °F 42.1 °F 90% 29.75 in 9.0 mi NE 3.5 mph - N/A   Overcast
2:35 PM 45.0 °F 43.5 °F 42.1 °F 90% 29.75 in 10.0 mi North 3.5 mph - N/A   Overcast
2:53 PM 45.0 °F 41.8 °F 42.1 °F 90% 29.75 in 10.0 mi North 5.8 mph - N/A   Overcast
3:53 PM 46.0 °F 43.1 °F 43.0 °F 89% 29.75 in 10.0 mi NNE 5.8 mph - N/A   Overcast
4:53 PM 46.0 °F 43.9 °F 44.1 °F 93% 29.75 in 9.0 mi North 4.6 mph - N/A   Overcast
5:53 PM 45.0 °F 43.5 °F 43.0 °F 93% 29.75 in 9.0 mi NNE 3.5 mph - N/A   Overcast
6:53 PM 45.0 °F 42.6 °F 43.0 °F 93% 29.77 in 8.0 mi NE 4.6 mph - N/A   Overcast
7:53 PM 45.0 °F 42.6 °F 44.1 °F 97% 29.76 in 7.0 mi NE 4.6 mph - N/A   Overcast
8:53 PM 44.1 °F 40.8 °F 43.0 °F 96% 29.76 in 6.0 mi NE 5.8 mph - N/A   Overcast
9:46 PM 44.1 °F 42.5 °F 42.1 °F 93% 29.77 in 6.0 mi North 3.5 mph - N/A   Overcast
9:53 PM 44.1 °F - 43.0 °F 96% 29.77 in 7.0 mi Calm Calm - N/A   Overcast
10:53 PM 43.0 °F 40.3 °F 41.0 °F 93% 29.76 in 8.0 mi North 4.6 mph - N/A   Overcast
11:28 PM 42.1 °F 40.2 °F 42.1 °F 100% 29.75 in 3.0 mi North 3.5 mph - N/A   Overcast
11:36 PM 42.1 °F 39.2 °F 42.1 °F 100% 29.75 in 1.8 mi NNW 4.6 mph - N/A   Overcast
11:53 PM 42.1 °F 36.6 °F 42.1 °F 100% 29.75 in 1.8 mi North 9.2 mph - N/A   Overcast